Погода в Ванадзоре

Армения     40°48′41″N   44°29′06″E
темп.,
°C
ветер,
м/с
пор.,
м/с
влажн.,
%
обл.,
%
осадки,
мм/ч
давл.,
гПа
погр.,
м
19 июня, сб
сб1901:00+11в22867 0.0 101814
04:00+9в22780 0.0 101911
07:00+12в22830 0.0 101869
10:00+16св34710 0.0 1017608
13:00+19св446523 0.0 10161063
16:00+19св446762 0.0 10151058
19:00+17св34720 0.0 1016459
22:00+12вюв2268100 0.0 101914
20 июня, вс
вс2001:00+11вюв22574 0.0 101813
04:00+10в216465 0.0 101811
07:00+12в12721 0.0 101851
10:00+17св34620 0.0 1016545
13:00+19св34600 0.0 1016953
16:00+20св436616 0.0 1016912
19:00+17св33730 0.0 1016517
22:00+12всв22770 0.0 101912
21 июня, пн
пн2101:00+11в22750 0.0 101912
04:00+9всв11830 0.0 101911
07:00+11всв22800 0.0 101873
10:00+17св33660 0.0 1016495
13:00+20св34648 0.0 1015931
16:00+20св437033 0.3 1015848
19:00+17св337934 0.4 1016536
22:00+12в127772 0.4 101911
22 июня, вт
вт2201:00+11в12641 0.0 101811
04:00+10в11650 0.0 101811
07:00+13в11680 0.0 101833
10:00+18св32580 0.0 1017417
13:00+20св33590 0.0 1016800
16:00+20св33620 0.0 1015806
19:00+17св33742 0.0 1017396
22:00+12всв228535 0.0 101918
23 июня, ср
ср2301:00+11вюв22580 0.0 101911
04:00+10вюв11510 0.0 101911
07:00+12вюв11600 0.0 101924
10:00+18св23520 0.0 1016435
13:00+21св34520 0.0 1015864
16:00+21св43580 0.0 1015745
19:00+19св33725 0.0 1016389
22:00+12всв22823 0.0 101912